Berlin, NH

8:19 PM EDT on October 23, 2017 (GMT -0400)
Berlin Municipal

Weather History for KBML - December, 2013

Change the Weather History Date:

Monday, December 9, 2013

  Actual Average Record
Temperature  
Mean Temperature 26 °F -  
Max Temperature 33 °F 31 °F 42 °F (2012)
Min Temperature 18 °F 13 °F -18 °F (2003)
Degree Days  
Heating Degree Days 40    
Moisture  
Dew Point 18 °F    
Average Humidity 73    
Maximum Humidity 85    
Minimum Humidity 57    
Precipitation  
Precipitation 0.00 in - - ()
Sea Level Pressure  
Sea Level Pressure 30.12 in    
Wind  
Wind Speed 7 mph (South)    
Max Wind Speed 18 mph    
Max Gust Speed 34 mph    
Visibility 9 miles    
Events Snow    
Averages and records for this station are not official NWS values.
T = Trace of Precipitation, MM = Missing Value Source: NWS Daily Summary

Daily Weather History Graph

Daily Weather History Graph

Search for Another Location

Airport or City:

Trip Planner

Search our weather history database for the weather conditions in past years. The results will help you decide how hot, cold, wet, or windy it might be!

Date:

Astronomy

Dec. 09, 2013 Rise Set
Actual Time 7:09 AM EST 4:04 PM EST
Civil Twilight 6:36 AM EST 4:37 PM EST
Nautical Twilight 5:59 AM EST 5:14 PM EST
Astronomical Twilight 5:24 AM EST 5:49 PM EST
Moon 11:47 AM EST (12/9) No Moon Set
Length of Visible Light 10h 01m
Length of Day
8h 54m
Waxing Crescent, 51% of the Moon is Illuminated
Dec 9
Waxing Crescent
Dec 17
Full
Dec 25
Last Quarter
Jan 1
New
Jan 7
First Quarter

Hourly Weather History & Observations

Time (EST) Temp. Windchill Dew Point Humidity Pressure Visibility Wind Dir Wind Speed Gust Speed Precip Events Conditions
12:52 AM 18.0 °F 11.1 °F 10.0 °F 71% 30.50 in 10.0 mi North 4.6 mph - N/A   Overcast
1:52 AM 18.0 °F - 10.0 °F 71% 30.47 in 10.0 mi Calm Calm - N/A   Overcast
2:52 AM 19.0 °F 12.3 °F 10.9 °F 71% 30.43 in 10.0 mi NNW 4.6 mph - N/A   Overcast
3:52 AM 19.0 °F - 12.0 °F 74% 30.41 in 10.0 mi Calm Calm - N/A   Overcast
4:52 AM 21.0 °F 9.3 °F 8.1 °F 57% 30.40 in 9.0 mi SSE 11.5 mph 21.9 mph 0.00 in Snow Light Snow
5:52 AM 19.9 °F 10.1 °F 10.0 °F 65% 30.38 in 8.0 mi South 8.1 mph - 0.00 in Snow Light Snow
6:52 AM 21.0 °F 9.3 °F 10.0 °F 63% 30.34 in 10.0 mi SSE 11.5 mph 21.9 mph 0.00 in   Overcast
7:52 AM 19.9 °F 7.9 °F 10.9 °F 68% 30.31 in 10.0 mi South 11.5 mph - N/A   Overcast
8:52 AM 19.9 °F 9.3 °F 12.0 °F 71% 30.27 in 10.0 mi South 9.2 mph - N/A   Overcast
9:52 AM 21.9 °F 12.5 °F 14.0 °F 72% 30.22 in 9.0 mi South 8.1 mph - 0.00 in   Overcast
10:52 AM 23.0 °F 8.7 °F 16.0 °F 74% 30.16 in 8.0 mi South 18.4 mph 34.5 mph N/A   Overcast
11:30 AM 24.1 °F 14.4 °F 17.1 °F 75% 30.07 in 2.5 mi South 9.2 mph - 0.00 in Snow Light Snow
11:37 AM 24.1 °F 11.0 °F 17.1 °F 75% 30.07 in 4.0 mi South 16.1 mph 23.0 mph 0.00 in Snow Light Snow
11:52 AM 26.1 °F 15.0 °F 17.1 °F 69% 30.12 in 7.0 mi SSE 12.7 mph 29.9 mph 0.00 in   Overcast
12:52 PM 27.0 °F 15.2 °F 19.0 °F 72% 30.05 in 10.0 mi South 15.0 mph 21.9 mph 0.00 in   Overcast
1:52 PM 28.9 °F 18.6 °F 21.0 °F 72% 30.00 in 6.0 mi SSE 12.7 mph 25.3 mph 0.00 in Snow Light Snow
2:52 PM 30.0 °F 18.3 °F 23.0 °F 75% 29.97 in 10.0 mi SSE 17.3 mph 28.8 mph 0.00 in   Overcast
3:52 PM 30.9 °F 20.2 °F 24.1 °F 76% 29.94 in 10.0 mi SSE 15.0 mph 25.3 mph N/A   Overcast
4:52 PM 33.1 °F 26.1 °F 25.0 °F 72% 29.91 in 10.0 mi South 8.1 mph - N/A   Overcast
5:52 PM 33.1 °F 28.7 °F 26.1 °F 75% 29.89 in 10.0 mi South 4.6 mph - N/A   Overcast
6:52 PM 32.0 °F 25.6 °F 25.0 °F 75% 29.86 in 10.0 mi South 6.9 mph - N/A   Overcast
7:52 PM 33.1 °F 27.7 °F 26.1 °F 75% 29.87 in 10.0 mi NNW 5.8 mph - N/A   Overcast
8:52 PM 30.0 °F - 23.0 °F 75% 29.85 in 10.0 mi Calm Calm - N/A   Mostly Cloudy
9:52 PM 28.9 °F - 24.1 °F 82% 29.84 in 10.0 mi Calm Calm - N/A   Overcast
10:52 PM 30.0 °F 25.2 °F 24.1 °F 79% 29.83 in 10.0 mi NNW 4.6 mph - N/A   Overcast
11:52 PM 30.9 °F - 27.0 °F 85% 29.83 in 6.0 mi Calm Calm - 0.00 in Snow Light Snow